Date,TemperatureHighF,TemperatureAvgF,TemperatureLowF,DewpointHighF,DewpointAvgF,DewpointLowF,HumidityHigh,HumidityAvg,HumidityLow,PressureMaxIn,PressureMinIn,WindSpeedMaxMPH,WindSpeedAvgMPH,GustSpeedMaxMPH,PrecipitationSumIn
2013-1-1,76,64,55,60,55,48,86,71,54,30.24,30.06,15,2,15,0.00
2013-1-2,80,70,61,64,59,53,84,71,50,30.11,29.99,12,1,12,0.00
2013-1-3,77,67,61,65,60,54,87,79,63,30.17,30.04,13,2,13,0.00
2013-1-4,68,66,63,63,61,58,86,84,81,30.27,30.12,13,2,13,0.00
2013-1-5,74,68,62,70,62,55,96,81,68,30.29,30.18,12,2,12,0.17
2013-1-6,76,70,64,72,68,62,100,92,85,30.22,30.07,9,1,9,0.01
2013-1-7,73,69,65,68,66,62,98,89,81,30.21,30.10,17,3,17,0.06
2013-1-8,78,72,67,72,69,66,100,92,80,30.24,30.11,11,1,11,0.09
2013-1-9,80,74,70,74,71,68,97,89,79,30.32,30.20,20,4,20,0.01
2013-1-10,79,74,71,71,69,66,92,83,70,30.34,30.23,20,4,20,0.00
2013-1-11,79,73,68,70,68,64,95,84,69,30.30,30.18,18,3,18,0.00
2013-1-12,78,71,63,70,66,60,98,84,71,30.22,30.12,14,2,14,0.01
2013-1-13,78,72,67,68,66,64,90,80,68,30.17,30.08,16,3,16,0.00
2013-1-14,79,71,62,69,65,58,97,82,70,30.20,30.14,15,2,15,0.00
2013-1-15,79,71,64,70,65,60,97,82,70,30.17,30.07,17,2,17,0.00
2013-1-16,81,71,61,69,65,58,97,81,63,30.12,30.02,17,2,17,0.00
2013-1-17,82,70,56,70,64,48,93,80,59,30.11,29.93,23,5,23,0.00
2013-1-18,69,60,46,62,52,38,87,75,65,30.26,30.10,27,6,27,0.05
2013-1-19,74,68,65,72,64,59,100,86,75,30.26,30.13,21,5,21,0.28
2013-1-20,73,68,63,68,65,62,99,92,80,30.18,30.06,15,2,15,0.00
2013-1-21,74,68,63,70,65,61,99,92,83,30.09,29.99,11,1,11,0.11
2013-1-22,68,63,60,61,54,49,95,73,59,30.27,30.02,25,4,25,0.00
2013-1-23,66,59,52,56,50,42,83,71,62,30.35,30.25,16,3,16,0.00
2013-1-24,69,58,47,55,49,42,87,73,51,30.34,30.24,11,1,11,0.00
2013-1-25,72,62,52,59,54,46,94,77,52,30.32,30.19,13,1,13,0.01
2013-1-26,71,62,52,60,54,46,88,76,62,30.29,30.18,11,1,11,0.00
2013-1-27,73,64,53,66,59,49,99,82,64,30.33,30.23,17,1,17,0.01
2013-1-28,74,71,70,69,66,63,89,83,78,30.36,30.26,15,3,17,0.00
2013-1-29,77,70,63,70,66,60,98,87,75,30.28,30.13,21,3,21,0.01
2013-1-30,83,73,65,68,65,62,96,78,57,30.15,29.94,24,4,24,0.01
2013-1-31,70,62,51,67,52,34,94,72,44,30.22,29.92,22,4,22,0.08
2013-2-1,63,55,46,51,42,34,77,62,47,30.34,30.20,16,3,16,0.00
2013-2-2,68,58,45,57,49,39,87,74,60,30.30,30.14,12,2,12,0.00
2013-2-3,67,59,50,54,49,40,89,71,45,30.21,30.07,15,1,15,0.00
2013-2-4,68,57,45,53,47,40,88,69,52,30.15,30.03,11,2,11,0.00
2013-2-5,74,61,48,58,50,40,81,67,47,30.12,30.02,12,2,12,0.00
2013-2-6,77,66,57,68,60,53,95,81,69,30.14,30.03,15,2,15,0.00
2013-2-7,78,71,61,68,64,57,93,78,66,30.11,29.93,22,4,22,0.01
2013-2-8,78,69,64,66,63,60,92,81,59,30.09,29.89,14,2,14,0.00
2013-2-9,71,66,58,63,60,55,94,81,71,30.22,30.06,17,3,17,0.01
2013-2-10,76,70,67,62,60,57,77,69,59,30.31,30.19,21,5,21,0.00
2013-2-11,79,72,65,67,64,55,89,75,60,30.25,30.11,19,4,19,0.00
2013-2-12,84,73,62,70,66,58,95,78,54,30.14,29.97,16,3,16,0.00
2013-2-13,86,76,67,72,68,60,96,78,53,30.01,29.86,22,5,22,0.00
2013-2-14,74,66,60,68,62,59,97,87,76,30.07,29.92,13,1,13,1.21
2013-2-15,66,62,59,62,60,58,100,93,85,30.08,29.96,11,1,11,0.09
2013-2-16,69,61,50,60,51,36,97,71,44,30.10,29.89,24,4,24,0.00
2013-2-17,52,47,40,40,28,21,68,49,36,30.36,30.09,26,4,26,0.00
2013-2-18,66,54,40,53,41,26,79,62,53,30.37,30.24,18,3,18,0.00
2013-2-19,78,66,51,63,56,46,96,72,51,30.25,30.08,18,2,20,0.01
2013-2-20,71,65,57,65,60,53,95,84,76,30.15,30.05,13,2,13,0.00
2013-2-21,79,70,62,69,65,56,99,83,51,30.14,30.03,15,2,15,0.00
2013-2-22,80,73,64,73,68,60,97,86,76,30.12,30.03,20,3,21,0.00
2013-2-23,86,76,68,73,69,64,95,78,56,30.06,29.90,24,3,24,0.01
2013-2-24,86,73,68,71,68,66,95,86,55,30.01,29.91,19,3,19,0.08
2013-2-25,85,76,70,74,70,67,97,84,56,29.94,29.80,19,3,19,0.00
2013-2-26,84,77,71,73,70,66,92,81,63,29.89,29.78,30,6,30,0.00
2013-2-27,75,68,62,66,62,55,91,80,63,29.99,29.87,12,2,12,0.01
2013-2-28,74,63,53,56,52,47,88,67,47,30.03,29.89,14,2,14,0.00
2013-3-1,68,60,55,51,46,40,76,62,40,30.00,29.91,16,3,16,0.00
2013-3-2,59,54,46,43,38,34,68,56,43,30.05,29.95,23,4,23,0.00
2013-3-3,59,48,40,39,35,30,77,60,43,30.18,29.98,24,5,25,0.00
2013-3-4,58,49,37,46,36,27,81,62,36,30.26,30.14,16,2,16,0.00
2013-3-5,77,61,45,60,50,40,90,69,43,30.21,30.05,15,2,15,0.00
2013-3-6,71,62,50,60,46,34,91,61,28,30.15,29.96,27,6,27,0.00
2013-3-7,63,54,44,51,43,33,81,67,59,30.22,30.10,13,3,13,0.00
2013-3-8,66,58,46,53,48,43,94,71,51,30.24,30.15,15,2,15,0.00
2013-3-9,70,62,51,57,52,46,90,71,56,30.25,30.13,12,2,12,0.00
2013-3-10,74,68,60,64,58,54,88,70,58,30.20,30.12,13,3,19,0.00
2013-3-11,76,70,62,66,60,56,84,71,58,30.15,29.97,22,4,22,0.00
2013-3-12,76,70,64,69,64,59,89,82,71,30.03,29.91,18,4,18,0.00
2013-3-13,68,61,53,59,52,46,90,74,49,30.17,30.01,19,3,19,0.01
2013-3-14,62,56,48,48,45,38,84,68,49,30.25,30.13,19,4,19,0.00
2013-3-15,65,56,45,51,45,39,81,67,53,30.30,30.18,13,2,13,0.00
2013-3-16,77,62,47,58,50,42,93,67,37,30.23,30.08,17,2,17,0.00
2013-3-17,75,66,53,62,56,47,87,71,56,30.19,30.04,19,2,19,0.00
2013-3-18,81,73,66,68,63,60,91,74,59,30.10,29.90,18,3,20,0.01
2013-3-19,79,70,64,68,65,62,96,84,67,30.04,29.91,11,1,15,0.01
2013-3-20,80,71,65,70,64,60,97,80,56,29.99,29.80,18,3,19,0.01
2013-3-21,67,61,55,60,49,38,87,65,39,29.98,29.84,17,3,17,0.01
2013-3-22,74,62,47,73,53,41,100,73,55,30.04,29.92,16,2,16,0.03
2013-3-23,88,76,68,75,69,26,97,79,58,30.02,29.78,20,3,20,0.10
2013-3-24,89,75,70,73,69,65,93,81,54,29.91,29.66,31,5,31,0.19
2013-3-25,77,70,57,70,55,38,94,64,30,30.04,29.74,18,4,19,0.01
2013-3-26,66,56,49,43,35,29,65,46,31,30.24,30.02,24,5,24,0.00
2013-3-27,60,52,43,45,38,32,73,60,46,30.31,30.20,15,3,17,0.00
2013-3-28,64,56,44,48,43,38,85,65,40,30.32,30.21,15,2,15,0.00
2013-3-29,69,61,50,60,48,44,88,66,50,30.35,30.24,16,2,16,0.00
2013-3-30,75,64,52,57,52,46,90,66,51,30.29,30.17,21,3,21,0.00
2013-3-31,81,69,57,66,59,50,88,72,50,30.22,30.04,22,4,22,0.00
2013-4-1,85,74,66,70,65,61,100,74,49,30.08,29.94,18,3,18,0.06
2013-4-2,76,71,64,68,64,60,93,80,60,30.11,30.00,12,2,12,0.00
2013-4-3,82,75,70,71,68,65,89,79,65,30.10,30.00,20,5,20,0.00
2013-4-4,75,72,67,72,68,65,94,90,84,30.08,29.91,18,4,20,0.21
2013-4-5,74,68,63,71,65,58,97,89,80,29.97,29.80,20,3,20,0.20
2013-4-6,74,67,57,65,60,53,90,80,64,30.14,29.95,20,4,20,0.00
2013-4-7,76,72,69,65,62,59,80,72,64,30.18,30.06,12,4,15,0.00
2013-4-8,78,70,60,67,63,56,96,78,64,30.19,30.07,16,2,16,0.00
2013-4-9,80,74,70,71,66,63,89,77,64,30.21,30.08,20,4,20,0.00
2013-4-10,81,76,70,74,69,65,90,82,69,30.15,30.03,21,5,21,0.00
2013-4-11,83,78,74,73,72,68,91,82,71,30.05,29.89,28,7,28,0.00
2013-4-12,91,82,75,75,72,68,93,75,54,29.95,29.84,23,5,25,0.00
2013-4-13,86,76,72,74,71,68,94,83,65,30.01,29.90,15,2,15,0.00
2013-4-14,85,78,74,76,74,71,95,87,72,30.01,29.88,22,5,22,1.28
2013-4-15,84,74,67,76,70,64,96,86,71,30.10,29.94,25,2,26,0.09
2013-4-16,81,77,73,74,72,68,96,85,76,30.18,30.05,16,4,16,0.00
2013-4-17,80,76,72,70,68,60,83,77,55,30.16,30.07,13,3,13,0.00
2013-4-18,85,78,69,74,70,65,93,79,67,30.09,30.01,19,4,19,0.00
2013-4-19,87,80,75,76,73,70,89,80,65,30.07,29.96,28,5,28,0.01
2013-4-20,78,72,68,75,69,64,96,88,83,30.13,29.98,19,3,19,0.10
2013-4-21,81,74,68,74,70,64,95,88,76,30.14,30.02,17,3,17,0.09
2013-4-22,77,72,70,71,69,66,96,88,74,30.09,29.99,15,2,15,0.02
2013-4-23,78,73,67,69,66,61,95,79,63,30.13,29.99,21,4,21,0.01
2013-4-24,80,75,71,66,64,60,74,68,57,30.18,30.06,15,3,15,0.00
2013-4-25,80,74,66,67,65,54,89,73,61,30.23,30.10,12,2,12,0.00
2013-4-26,79,74,66,71,67,62,90,78,70,30.27,30.16,13,2,13,0.00
2013-4-27,81,76,71,70,67,65,86,74,64,30.25,30.14,19,4,19,0.00
2013-4-28,82,77,73,68,65,61,75,68,59,30.17,30.05,19,6,19,0.00
2013-4-29,83,78,73,72,68,65,83,73,63,30.08,29.95,22,4,22,0.00
2013-4-30,80,75,70,74,70,68,94,87,75,30.04,29.96,16,2,16,0.30
2013-5-1,80,74,69,73,70,67,98,87,75,30.04,29.95,15,2,15,0.31
2013-5-2,76,72,66,72,69,64,98,91,83,29.98,29.84,17,4,17,1.35
2013-5-3,84,75,69,73,70,54,95,83,63,29.86,29.68,17,2,17,0.01
2013-5-4,85,76,68,71,68,65,92,79,59,29.82,29.69,14,2,14,0.00
2013-5-5,81,73,67,69,59,42,92,64,25,29.95,29.75,18,4,18,0.00
2013-5-6,82,72,62,75,58,52,100,64,45,30.03,29.92,17,3,17,0.00
2013-5-7,82,71,58,82,57,41,100,64,46,30.09,29.99,19,3,19,0.00
2013-5-8,80,72,62,66,62,57,90,72,52,30.16,30.04,9,2,15,0.00
2013-5-9,77,72,65,71,66,60,88,79,71,30.19,30.09,13,2,13,0.00
2013-5-10,87,78,71,76,71,67,96,80,62,30.17,30.05,19,3,19,0.14
2013-5-11,93,78,72,77,71,68,95,81,51,30.10,29.97,20,3,20,0.47
2013-5-12,87,78,71,77,72,68,95,84,65,30.06,29.97,21,2,21,0.06
2013-5-13,79,74,70,72,66,58,90,76,60,30.15,30.00,17,2,17,0.00
2013-5-14,78,74,71,64,58,53,64,57,51,30.23,30.12,13,4,13,0.00
2013-5-15,79,74,66,65,62,58,85,66,56,30.25,30.14,15,2,15,0.00
2013-5-16,80,74,66,68,64,60,89,70,59,30.17,30.08,16,3,16,0.00
2013-5-17,83,77,69,74,68,64,87,75,66,30.14,30.05,17,4,17,0.00
2013-5-18,85,78,70,77,71,61,93,79,69,30.15,30.07,17,4,17,0.00
2013-5-19,82,77,74,75,71,69,92,82,71,30.14,30.04,10,3,16,0.20
2013-5-20,79,75,72,73,71,69,95,87,75,30.12,30.02,10,1,15,0.35
2013-5-21,84,76,70,83,71,68,100,86,71,30.06,29.97,20,2,20,0.07
2013-5-22,82,75,70,78,72,67,100,88,79,30.01,29.93,17,2,17,0.17
2013-5-23,83,78,71,78,72,68,100,85,74,30.03,29.92,13,2,13,0.00
2013-5-24,86,80,71,77,72,67,93,78,58,30.11,29.97,11,2,11,0.00
2013-5-25,83,79,75,73,67,62,84,67,51,30.23,30.09,19,5,19,0.00
2013-5-26,80,76,70,78,64,60,98,68,63,30.25,30.16,14,3,14,0.00
2013-5-27,81,77,73,74,67,62,84,72,65,30.22,30.13,18,5,18,0.00
2013-5-28,84,78,74,84,72,60,100,81,72,30.17,30.10,23,7,23,0.21
2013-5-29,82,77,73,76,74,71,96,88,77,30.17,30.07,22,6,22,0.61
2013-5-30,83,79,76,75,72,69,90,80,70,30.15,30.06,25,8,25,0.01
2013-5-31,83,79,76,76,72,69,89,80,74,30.13,30.07,23,8,23,0.07
2013-6-1,85,80,77,77,74,71,89,83,72,30.09,30.01,23,6,23,0.01
2013-6-2,89,81,76,78,75,73,95,84,66,30.04,29.93,16,2,16,0.00
2013-6-3,88,80,75,77,74,72,93,82,67,30.05,29.93,16,2,16,0.00
2013-6-4,84,79,76,76,73,69,91,82,69,30.08,29.96,9,1,10,0.00
2013-6-5,85,80,77,77,75,70,92,85,75,30.05,29.94,15,3,15,0.03
2013-6-6,81,76,73,78,74,71,96,93,86,29.95,29.75,28,5,28,1.95
2013-6-7,90,81,74,78,74,71,96,82,65,29.99,29.81,21,4,21,0.00
2013-6-8,85,78,74,78,74,72,95,89,75,30.12,29.98,20,2,20,0.29
2013-6-9,87,80,73,78,75,71,99,84,68,30.15,30.07,20,4,20,0.00
2013-6-10,88,82,78,79,76,74,92,84,71,30.13,30.05,19,4,19,0.00
2013-6-11,88,81,77,79,76,74,95,86,75,30.12,30.03,14,2,14,0.00
2013-6-12,86,80,75,84,75,70,100,83,71,30.11,30.05,14,2,14,0.00
2013-6-13,92,82,74,79,74,67,91,76,59,30.08,29.94,19,2,19,0.00
2013-6-14,93,84,75,82,74,56,93,74,56,29.98,29.88,16,3,16,0.00
2013-6-15,86,81,76,78,75,72,90,81,71,30.09,29.94,19,3,19,0.00
2013-6-16,87,82,77,78,76,74,94,83,72,30.13,30.06,17,5,17,0.16
2013-6-17,90,84,78,79,76,74,90,79,63,30.12,30.02,17,3,17,0.00
2013-6-18,91,84,79,79,76,74,90,77,60,30.10,30.00,19,4,19,0.00
2013-6-19,91,82,72,78,74,67,91,76,55,30.10,30.00,29,4,29,0.14
2013-6-20,88,78,75,78,74,70,93,87,64,30.13,30.04,14,1,14,0.50
2013-6-21,83,77,73,78,73,70,98,88,72,30.18,30.05,15,0,15,0.10
2013-6-22,86,80,73,77,74,68,96,82,71,30.16,30.07,15,2,15,0.00
2013-6-23,87,81,76,78,75,71,90,81,69,30.19,30.08,16,3,16,0.00
2013-6-24,87,82,76,77,75,73,92,80,70,30.23,30.13,17,4,17,0.00
2013-6-25,86,82,79,78,75,74,86,80,73,30.19,30.09,17,3,17,0.00
2013-6-26,88,80,76,78,76,74,94,88,71,30.14,30.03,16,1,16,0.76
2013-6-27,89,81,74,78,75,71,96,82,66,30.09,29.98,14,2,16,0.01
2013-6-28,95,83,76,94,74,69,100,75,50,30.02,29.88,25,3,25,0.01
2013-6-29,93,81,74,78,74,68,93,80,57,29.93,29.85,20,3,20,0.48
2013-6-30,88,76,74,79,74,72,96,92,72,29.97,29.86,13,2,15,0.83
2013-7-1,88,77,74,79,74,71,95,91,70,30.08,29.92,25,2,27,1.08
2013-7-2,86,77,74,80,75,72,96,92,79,30.14,30.00,14,2,14,0.09
2013-7-3,88,81,76,79,76,73,95,85,69,30.18,30.08,27,4,27,0.09
2013-7-4,88,81,74,78,75,71,97,83,71,30.19,30.11,25,5,25,0.16
2013-7-5,88,81,75,78,75,71,94,83,70,30.20,30.10,22,5,22,0.12
2013-7-6,88,82,77,78,75,73,90,81,71,30.17,30.09,19,4,20,0.09
2013-7-7,86,82,77,78,76,73,90,81,72,30.17,30.09,17,4,17,0.01
2013-7-8,86,82,76,77,75,73,93,81,70,30.20,30.12,15,2,16,0.01
2013-7-9,83,80,75,76,74,72,93,84,77,30.22,30.09,17,1,17,0.19
2013-7-10,85,81,75,76,74,72,92,81,69,30.13,30.02,16,3,16,0.00
2013-7-11,89,82,77,79,75,71,91,79,68,30.09,29.97,17,2,17,0.00
2013-7-12,90,79,74,79,74,63,95,85,63,30.00,29.91,15,1,15,0.85
2013-7-13,86,77,73,79,74,71,95,88,72,30.04,29.94,17,2,17,0.03
2013-7-14,84,77,73,76,72,70,94,87,76,30.13,30.01,15,2,18,0.14
2013-7-15,82,77,72,77,73,70,96,88,79,30.15,30.06,15,2,15,0.00
2013-7-16,85,78,74,77,73,71,95,87,73,30.20,30.10,13,2,22,0.69
2013-7-17,83,78,74,77,74,71,96,89,76,30.18,30.10,21,2,21,0.27
2013-7-18,86,78,74,77,74,72,96,87,72,30.16,30.08,14,2,14,0.02
2013-7-19,88,82,74,86,76,68,100,84,74,30.16,30.07,19,4,19,0.00
2013-7-20,86,79,74,80,75,70,97,90,79,30.15,30.05,15,1,15,0.12
2013-7-21,90,80,74,80,74,68,93,85,67,30.17,30.06,25,2,25,0.19
2013-7-22,93,81,73,79,74,71,95,79,54,30.15,30.09,13,2,13,0.00
2013-7-23,93,83,77,93,75,61,100,78,57,30.13,29.99,15,2,15,0.00
2013-7-24,89,80,75,78,75,71,93,85,66,30.05,29.92,22,2,22,0.22
2013-7-25,85,79,76,79,76,73,94,88,80,30.02,29.91,14,2,15,0.49
2013-7-26,84,79,75,78,76,73,96,88,78,30.04,29.96,11,2,11,0.05
2013-7-27,88,82,76,80,76,67,96,83,70,30.03,29.94,17,2,17,0.01
2013-7-28,87,80,73,78,75,70,98,85,73,30.10,29.95,34,1,34,0.94
2013-7-29,86,81,75,80,76,72,96,85,77,30.19,30.05,11,2,12,0.00
2013-7-30,86,82,77,80,77,74,96,86,75,30.22,30.13,13,2,13,0.00
2013-7-31,90,84,79,79,77,75,94,81,65,30.17,30.05,16,2,16,0.00
2013-8-1,89,84,78,78,76,73,90,78,62,30.10,30.00,12,2,17,0.00
2013-8-2,85,81,77,77,75,73,90,82,72,30.06,29.96,14,1,14,0.00
2013-8-3,85,79,75,79,75,72,94,87,72,30.15,30.07,16,2,16,0.08
2013-8-4,93,82,75,81,76,73,97,84,63,30.12,30.01,12,2,14,0.01
2013-8-5,90,80,76,80,76,73,95,87,69,30.06,29.95,15,2,15,0.44
2013-8-6,87,81,75,81,76,72,95,87,75,30.01,29.92,11,1,11,0.00
2013-8-7,90,84,79,80,78,75,96,82,67,30.02,29.93,18,4,18,0.01
2013-8-8,90,84,80,80,77,75,89,79,67,30.08,29.97,19,4,19,0.00
2013-8-9,89,84,80,79,76,72,85,76,64,30.11,29.99,20,5,20,0.00
2013-8-10,90,84,78,79,76,43,92,79,43,30.18,30.08,17,3,17,0.00
2013-8-11,88,84,80,88,77,68,100,80,68,30.20,30.11,15,3,15,0.00
2013-8-12,86,82,76,86,75,54,100,80,51,30.16,30.06,12,2,12,0.00
2013-8-13,90,83,77,89,76,73,100,80,68,30.10,29.99,16,2,16,0.00
2013-8-14,91,86,78,79,76,65,89,73,55,30.06,29.95,18,4,18,0.00
2013-8-15,90,84,78,78,76,74,89,78,64,30.09,29.98,16,2,16,0.00
2013-8-16,90,84,79,79,77,73,88,79,60,30.10,30.01,17,2,17,0.00
2013-8-17,91,85,81,80,78,76,90,80,65,30.12,30.04,19,3,19,0.00
2013-8-18,91,85,79,82,77,74,88,79,67,30.15,30.05,19,3,19,0.00
2013-8-19,92,85,80,91,78,75,100,79,62,30.13,30.01,18,3,18,0.00
2013-8-20,89,82,78,79,76,74,92,83,70,30.13,30.02,18,2,18,0.13
2013-8-21,88,82,78,80,78,68,95,85,72,30.15,30.06,19,3,19,0.55
2013-8-22,88,82,78,84,78,72,95,88,73,30.12,30.03,16,3,16,0.02
2013-8-23,87,83,78,82,77,74,95,84,73,30.06,29.99,19,3,19,0.52
2013-8-24,87,81,77,80,76,74,97,85,70,30.13,30.01,20,2,20,0.12
2013-8-25,83,80,77,78,76,73,95,87,75,30.20,30.08,11,1,11,0.07
2013-8-26,86,81,76,85,76,50,100,83,30,30.16,30.04,16,2,16,0.00
2013-8-27,86,82,75,75,73,70,94,73,65,30.09,30.02,14,4,16,0.24
2013-8-28,86,81,79,78,74,71,85,78,69,30.09,29.99,13,2,13,0.02
2013-8-29,87,82,75,79,74,71,90,79,69,30.07,29.97,13,2,13,0.02
2013-8-30,90,85,78,80,76,73,91,75,65,30.04,29.94,14,2,14,0.00
2013-8-31,90,81,76,79,74,70,90,80,63,30.03,29.92,22,3,22,0.00
2013-9-1,89,81,75,88,74,45,100,79,66,30.04,29.95,14,1,14,0.00
2013-9-2,90,79,74,80,73,70,93,84,65,30.08,29.94,28,1,28,1.28
2013-9-3,88,80,73,80,75,71,95,85,70,30.06,29.96,12,1,12,0.01
2013-9-4,87,82,76,82,77,73,93,86,79,30.12,29.99,11,1,11,0.00
2013-9-5,88,84,79,82,78,76,92,84,76,30.12,30.04,12,2,12,0.00
2013-9-6,87,82,78,81,77,74,93,85,71,30.09,29.99,17,2,17,0.02
2013-9-7,85,80,73,78,75,70,96,85,74,30.04,29.94,9,1,12,0.93
2013-9-8,86,80,75,77,74,72,95,84,73,30.00,29.90,12,1,12,0.03
2013-9-9,86,80,74,77,74,71,99,82,68,30.05,29.93,15,3,15,0.66
2013-9-10,87,82,78,77,74,71,87,76,67,30.12,30.00,16,4,23,0.02
2013-9-11,84,80,74,78,75,70,93,85,78,30.11,30.02,19,2,19,0.53
2013-9-12,80,78,75,76,74,73,94,89,83,30.06,29.92,11,0,11,0.04
2013-9-13,86,80,73,86,74,62,100,84,46,29.94,29.84,10,1,12,0.00
2013-9-14,88,82,76,79,76,73,93,81,69,30.01,29.85,13,2,13,0.00
2013-9-15,88,80,74,80,75,70,95,85,76,30.10,29.98,17,2,17,0.96
2013-9-16,85,79,74,79,75,72,96,86,77,30.11,30.01,28,3,28,0.23
2013-9-17,85,79,75,81,74,67,95,87,76,30.09,29.98,21,3,21,0.56
2013-9-18,84,80,76,79,75,73,95,85,77,30.05,29.96,17,3,20,0.25
2013-9-19,83,79,75,77,74,70,95,85,74,30.06,29.97,14,3,14,0.50
2013-9-20,84,80,75,72,70,68,86,71,61,30.05,29.94,15,2,15,0.01
2013-9-21,85,80,74,74,72,58,92,77,65,29.97,29.81,12,2,12,0.01
2013-9-22,91,82,75,77,74,65,91,77,59,29.90,29.78,15,2,16,0.01
2013-9-23,88,78,74,83,74,41,97,88,69,30.02,29.86,13,1,13,2.69
2013-9-24,85,79,75,80,75,71,97,90,79,30.00,29.86,11,2,14,0.01
2013-9-25,85,79,74,76,72,71,93,81,65,29.90,29.81,20,3,20,0.01
2013-9-26,90,81,75,78,75,72,94,82,64,29.87,29.79,19,4,19,0.01
2013-9-27,83,77,72,78,72,29,97,85,65,29.97,29.84,17,2,17,0.08
2013-9-28,85,78,72,75,72,68,96,80,65,30.02,29.91,16,4,16,0.03
2013-9-29,84,79,73,74,71,68,92,76,66,30.01,29.93,12,2,12,0.01
2013-9-30,84,78,72,74,72,68,93,80,70,30.05,29.93,12,2,12,0.00
2013-10-1,85,80,73,74,72,69,92,78,67,30.09,29.99,14,2,14,0.00
2013-10-2,84,80,78,74,72,70,80,75,69,30.09,30.02,14,3,14,0.01
2013-10-3,85,80,74,75,72,68,86,75,67,30.11,29.99,14,2,14,0.00
2013-10-4,84,80,76,74,72,70,87,75,66,30.12,30.03,10,2,10,0.00
2013-10-5,85,80,74,76,73,69,89,78,68,30.08,29.99,12,2,12,0.00
2013-10-6,87,81,75,76,74,71,90,78,66,30.01,29.91,13,2,13,0.00
2013-10-7,87,78,74,76,73,71,100,85,66,29.92,29.82,20,3,20,0.24
2013-10-8,89,80,74,77,73,71,95,81,56,29.95,29.82,15,3,15,0.01
2013-10-9,82,77,74,75,72,66,96,86,75,30.04,29.90,20,3,20,0.11
2013-10-10,81,75,69,74,69,65,95,80,70,30.07,29.98,17,2,17,0.00
2013-10-11,82,75,66,69,66,62,90,73,58,30.07,29.97,11,1,11,0.00
2013-10-12,86,76,70,71,68,65,91,76,54,30.08,29.98,12,1,12,0.00
2013-10-13,82,76,68,69,66,63,89,73,54,30.11,30.01,13,1,13,0.00
2013-10-14,82,76,70,74,69,65,90,79,71,30.06,29.96,18,2,18,0.00
2013-10-15,81,75,69,77,70,67,95,84,69,30.01,29.91,11,1,11,0.00
2013-10-16,82,77,71,75,71,68,93,83,71,30.00,29.92,12,2,12,0.00
2013-10-17,83,80,71,76,72,68,93,79,69,30.01,29.93,11,2,11,0.01
2013-10-18,84,78,72,76,72,68,92,81,72,30.03,29.93,14,2,14,0.00
2013-10-19,87,80,73,76,73,68,92,80,65,30.00,29.90,16,2,16,0.01
2013-10-20,85,80,76,85,75,72,100,85,72,30.00,29.89,12,2,12,0.07
2013-10-21,87,81,75,78,75,72,94,84,72,30.04,29.93,12,2,12,0.01
2013-10-22,92,83,78,78,75,73,91,78,58,29.99,29.84,14,2,14,0.00
2013-10-23,80,77,71,74,70,62,89,79,67,30.01,29.82,10,2,13,0.00
2013-10-24,76,71,65,64,60,55,79,69,63,30.16,29.99,13,2,13,0.00
2013-10-25,78,71,64,66,62,59,88,73,61,30.23,30.13,17,3,17,0.00
2013-10-26,77,72,65,76,60,57,100,66,55,30.22,30.11,13,2,13,0.00
2013-10-27,76,69,60,65,61,57,91,76,59,30.15,30.07,12,1,12,0.00
2013-10-28,81,73,65,72,65,60,88,76,64,30.19,30.09,11,2,14,0.00
2013-10-29,82,76,68,71,67,62,90,74,61,30.24,30.13,16,3,16,0.00
2013-10-30,82,78,71,70,68,66,86,71,63,30.25,30.14,14,3,14,0.00
2013-10-31,84,79,74,73,69,66,83,72,63,30.17,30.03,18,4,18,0.00
2013-11-1,90,81,74,75,72,69,91,75,55,30.06,29.90,17,2,17,0.00
2013-11-2,86,75,68,73,68,62,94,78,57,29.98,29.84,20,3,20,0.00
2013-11-3,76,71,64,62,58,53,82,63,46,30.11,29.93,19,4,19,0.00
2013-11-4,78,75,71,67,62,54,87,63,50,30.17,30.07,28,8,28,0.02
2013-11-5,82,77,72,72,69,65,86,76,67,30.16,30.09,24,7,28,0.04
2013-11-6,82,77,74,75,68,60,91,73,61,30.13,30.05,14,3,14,0.00
2013-11-7,79,74,70,78,70,60,100,86,75,30.07,29.97,12,1,12,0.00
2013-11-8,78,73,68,71,68,64,95,83,74,30.12,29.98,20,5,20,0.00
2013-11-9,79,76,74,70,68,66,82,77,71,30.20,30.08,19,5,19,0.00
2013-11-10,80,75,72,71,69,67,90,81,71,30.18,30.10,15,1,15,0.00
2013-11-11,80,75,70,79,69,67,100,82,70,30.18,30.09,13,2,13,0.00
2013-11-12,78,73,70,74,68,65,95,84,76,30.12,30.01,12,2,12,0.00
2013-11-13,72,69,67,66,58,49,84,70,53,30.29,30.04,23,7,29,0.00
2013-11-14,75,71,67,62,57,52,70,62,53,30.31,30.18,22,6,23,0.00
2013-11-15,78,74,71,68,65,59,80,72,63,30.21,30.09,16,4,16,0.00
2013-11-16,82,75,70,82,68,47,100,79,44,30.15,30.04,17,3,17,0.05
2013-11-17,83,78,72,73,71,70,92,81,67,30.12,30.03,19,4,19,0.01
2013-11-18,86,77,70,76,71,68,93,83,63,30.05,29.94,10,1,10,0.00
2013-11-19,77,74,70,72,69,66,93,85,73,29.99,29.89,15,1,15,0.00
2013-11-20,78,75,71,73,71,68,95,88,78,30.12,29.95,18,5,18,0.82
2013-11-21,78,75,72,73,70,66,97,86,76,30.20,30.09,23,5,23,5.47
2013-11-22,80,76,74,71,68,55,85,75,68,30.22,30.12,19,5,19,0.00
2013-11-23,80,75,68,71,66,64,87,75,65,30.14,30.02,12,1,12,0.00
2013-11-24,75,69,67,67,64,56,95,82,65,30.23,30.01,23,5,23,0.04
2013-11-25,74,71,69,67,60,55,90,70,59,30.26,30.09,22,7,22,0.01
2013-11-26,82,76,71,74,71,67,91,85,75,30.09,29.79,25,6,25,0.05
2013-11-27,75,69,51,73,61,44,94,78,59,30.17,29.74,24,6,24,0.01
2013-11-28,69,56,43,58,49,37,84,75,60,30.32,30.16,17,4,17,0.00
2013-11-29,73,66,57,62,59,53,92,77,59,30.34,30.26,18,3,18,0.05
2013-11-30,77,71,62,67,64,60,95,79,65,30.28,30.17,19,5,19,0.08
2013-12-1,70,67,65,68,65,63,97,94,86,30.18,29.97,13,1,13,0.53
2013-12-2,71,66,61,65,62,57,98,89,75,29.98,29.82,12,1,12,0.01
2013-12-3,78,69,63,65,62,51,91,79,61,30.03,29.90,11,1,11,0.00
2013-12-4,84,72,63,80,65,55,100,79,54,30.12,30.00,12,1,12,0.00
2013-12-5,81,73,65,79,67,61,100,82,69,30.20,30.11,10,2,14,0.00
2013-12-6,78,73,69,72,69,66,96,86,79,30.23,30.12,13,2,13,0.04
2013-12-7,78,72,66,72,68,63,94,86,77,30.26,30.18,6,0,8,0.00
2013-12-8,81,76,71,71,69,67,91,81,67,30.26,30.15,20,3,20,0.01
2013-12-9,83,75,69,72,68,64,95,81,62,30.22,30.13,20,3,20,0.01
2013-12-10,84,75,65,72,67,58,93,77,55,30.20,30.09,13,2,13,0.00
2013-12-11,80,74,68,76,69,60,94,85,76,30.25,30.17,12,2,12,0.00
2013-12-12,71,68,66,69,61,53,97,80,61,30.29,30.18,21,4,22,0.00
2013-12-13,74,70,68,64,58,54,75,65,56,30.27,30.14,16,5,16,0.00
2013-12-14,79,75,72,73,69,63,89,82,75,30.16,29.98,22,5,22,0.08
2013-12-15,76,71,66,73,67,59,95,87,75,30.12,29.93,18,3,18,0.00
2013-12-16,66,61,54,60,55,50,88,81,71,30.22,30.09,14,3,16,0.00
2013-12-17,71,62,53,63,56,49,95,82,68,30.24,30.14,12,2,12,0.00
2013-12-18,68,60,52,56,51,45,88,72,54,30.29,30.18,13,2,13,0.00
2013-12-19,74,64,52,61,55,47,91,74,59,30.29,30.20,13,2,13,0.00
2013-12-20,79,69,58,67,61,54,93,77,57,30.25,30.14,18,2,18,0.00
2013-12-21,81,75,68,74,70,65,95,86,78,30.19,30.09,20,3,20,0.00
2013-12-22,83,76,71,74,71,59,94,84,70,30.19,30.10,26,3,26,0.00
2013-12-23,84,76,72,76,71,66,93,83,68,30.21,30.11,12,3,15,0.00
2013-12-24,73,67,62,70,61,51,96,82,66,30.24,30.12,19,3,19,0.05
2013-12-25,74,70,67,61,59,55,73,68,61,30.24,30.16,18,5,18,0.00
2013-12-26,74,69,65,68,64,60,93,84,71,30.22,30.10,14,2,14,0.00
2013-12-27,76,70,67,70,68,65,97,91,81,30.25,30.14,12,2,12,0.03
2013-12-28,77,73,68,72,69,66,94,87,78,30.24,30.05,20,4,20,0.36
2013-12-29,80,75,72,75,71,69,95,87,76,30.06,29.90,13,4,19,0.06
2013-12-30,73,66,60,69,62,55,92,87,73,30.20,29.99,13,2,13,0.00
2013-12-31,71,67,63,62,59,56,85,76,67,30.30,30.15,14,3,14,0.00
2014-1-1,72,70,67,70,66,61,97,90,72,30.25,30.05,8,2,12,0.44
2014-1-2,83,73,64,72,67,63,98,84,64,30.06,29.84,23,4,23,0.23